Flag for Estonia Weather past 2 weeks in Tallinn, Estonia

Now
21 °F

Light snow. Overcast.


Feels Like: 16 °F
Forecast: 21 / 37 °F
Wind: 3 mph from North

Location: Tallinn

Current Time: Dec 29, 2014 at 11:37:49 AM

Latest Report: Dec 29, 2014 at 11:20 AM


Visibility: 6 mi

Pressure: 30.27 "Hg

Humidity: 86%

Dew point: 18 °F

Location of TallinnLocation

Historic Weather in Tallinn — Graph

°F

Tallinn temperature yesterday

Maximum temperature yesterday: 25 °F (at 12:20 AM)
Minimum temperature yesterday: 18 °F (at 8:50 PM)
Average temperature yesterday: 21 °F

Past Weeks' High & Low Weather Summary

 TemperatureHumidityPressure
High43 °F (Dec 19, 2:50 PM)100% (Dec 15, 1:20 AM)30.27 "Hg (Dec 15, 1:20 AM)
Low18 °F (Dec 28, 8:50 PM)60% (Dec 21, 12:20 PM)28.94 "Hg (Dec 22, 11:50 PM)
Average31 °F91%29.55 "Hg
* Reported Dec 14 10:20 AM — Dec 29 10:20 AM, Tallinn, Weather by CustomWeather, © 2014

Note: Actual official high and low records may vary slightly from our data, if they occured in-between our weather recording intervals... More about our weather records

Advertising

Tallinn weather history for previous 24 hours

 ConditionsComfort  
Time TempWeatherWind HumidityBarometerVisibility
10:20 AM
Dec 29
19 °FLight snow. Overcast.3 mph93%30.27 "Hg5 mi
9:50 AM19 °FLight snow. Overcast.2 mph93%30.24 "Hg5 mi
9:20 AM21 °FLight snow. Overcast.5 mph86%30.24 "Hg6 mi
8:50 AM19 °FLight snow. Overcast.5 mph93%30.24 "Hg5 mi
8:20 AM21 °FLight snow. Mostly cloudy.5 mph86%30.21 "Hg6 mi
7:50 AM19 °FLight snow. Overcast.3 mph93%30.21 "Hg5 mi
7:20 AM19 °FLight snow. Overcast.5 mph93%30.21 "Hg6 mi
6:50 AM19 °FLight snow. Overcast.5 mph93%30.21 "Hg6 mi
6:20 AM19 °FLight snow. Overcast.7 mph93%30.21 "HgN/A
5:50 AM19 °FLight snow. Overcast.6 mph93%30.21 "HgN/A
5:20 AM19 °FLight snow. Overcast.6 mph93%30.21 "HgN/A
4:50 AM19 °FLight snow. Overcast.6 mph93%30.21 "Hg4 mi
4:20 AM19 °FLight snow. Mostly cloudy.6 mph93%30.21 "Hg4 mi
3:50 AM19 °FLight snow. Low clouds.6 mph93%30.21 "Hg4 mi
3:20 AM19 °FLight snow. Low clouds.7 mph93%30.18 "Hg3 mi
2:50 AM19 °FSnow. Overcast.5 mph93%30.18 "Hg3 mi
2:20 AM19 °FLight snow. Mostly cloudy.3 mph93%30.18 "Hg4 mi
1:50 AM19 °FSnow. Overcast.5 mph93%30.18 "Hg3 mi
1:20 AM18 °FSnow. Overcast.5 mph93%30.18 "Hg3 mi
12:50 AM18 °FSnow. Overcast.5 mph93%30.18 "Hg3 mi
12:20 AM18 °FSnow. Overcast.3 mph93%30.18 "Hg2 mi
11:20 PM
Dec 28
18 °FSnow. Low clouds.6 mph93%30.18 "Hg2 mi
10:50 PM18 °FLight snow. Low clouds.7 mph93%30.18 "Hg5 mi
10:20 PM18 °FLight snow. Overcast.7 mph86%30.18 "HgN/A
9:50 PM18 °FLight snow. Mostly cloudy.7 mph93%30.18 "Hg6 mi
9:20 PM18 °FLight snow. Low clouds.6 mph93%30.15 "Hg4 mi
8:50 PM18 °FLight snow. Overcast.8 mph93%30.15 "HgN/A
8:20 PM19 °FLight snow. Overcast.6 mph86%30.15 "HgN/A
7:50 PM19 °FLight snow. Overcast.7 mph86%30.15 "HgN/A
7:20 PM19 °FLight snow. Overcast.6 mph86%30.15 "HgN/A
6:50 PM19 °FLight snow. Overcast.7 mph86%30.15 "HgN/A
6:20 PM19 °FLight snow. Overcast.5 mph86%30.12 "HgN/A
5:50 PM19 °FLight snow. Overcast.6 mph93%30.12 "HgN/A
5:20 PM19 °FLight snow. Overcast.8 mph86%30.12 "HgN/A
4:50 PM21 °FLight snow. Overcast.8 mph86%30.12 "HgN/A
4:20 PM21 °FLight snow. Overcast.7 mph86%30.09 "HgN/A
3:50 PM21 °FLight snow. Overcast.7 mph86%30.09 "HgN/A
3:20 PM21 °FLight snow. Overcast.6 mph86%30.09 "HgN/A
2:50 PM21 °FLight snow. Overcast.9 mph86%30.09 "HgN/A
2:20 PM21 °FLight snow. Overcast.7 mph86%30.09 "HgN/A
1:50 PM21 °FLight snow. Overcast.6 mph86%30.07 "HgN/A
1:20 PM21 °FLight snow. Overcast.8 mph86%30.07 "HgN/A
12:50 PM21 °FLight snow. Overcast.7 mph86%30.07 "HgN/A
12:20 PM21 °FLight snow. Overcast.6 mph86%30.07 "HgN/A
11:50 AM21 °FLight snow. Overcast.6 mph86%30.07 "HgN/A
11:20 AM21 °FLight snow. More clouds than sun.7 mph86%30.07 "HgN/A
Weather by CustomWeather, © 2014

See weather overviewHow to use our weather pages